Location: Newark
(47.5833°N, 8.1500°E)
Time: 10:46:31
(UTC+00:00)

Vanguard 2 Rocket - Pass Details

Date: 29 October 2020
Orbit: 553 x 3326 km, 32.9° (Epoch: 04 December)

Event Time Altitude Azimuth Distance (km) Brightness Sun altitude
Rises 19:42:12 0° 239° (WSW) 2,820 9.9 -35.3°
Enters shadow 19:43:39 - 229° (SW) 2,395 9.4 -35.5°
Reaches altitude 10° 19:45:02 10° 215° (SW) 2,089 - -35.7°
Maximum altitude 19:47:52 16° 178° (S) 1,955 - -36.2°
Drops below altitude 10° 19:51:21 10° 142° (SE) 2,671 - -36.7°
Sets 19:55:47 0° 123° (ESE) 4,134 - -37.4°
